Location: Chochol
(49.7771°N, 14.9780°E)
Time: 15:55:30
(UTC+00:00)

Resurs 01 Rocket - Pass Details

Date: 09 April 2020
Orbit: 635 x 644 km, 98.0° (Epoch: 03 June)

Event Time Altitude Azimuth Distance (km) Brightness Sun altitude
Exits shadow 19:17:45 17° 161° (SSE) 1,622 3.2 -14.6°
Maximum altitude 19:21:10 82° 75° (ENE) 650 1.5 -15.1°
Drops below altitude 10° 19:25:37 10° 348° (NNW) 2,039 4.9 -15.7°
Sets 19:27:50 0° 347° (NNW) 2,955 5.8 -16.0°
